Regional Weather Roundup
Issued by NWS

Home | Current Version | Previous Version | Text Only | Print | Product List | Glossary On
Versions: 1 2 3 4 5 6 7 8 9 10 11 12 13 14 15 16 17 18 19 20 21 22 23 24 25 26 27 28 29 30 31 32 33 34 35 36 37 38 39 40 41 42 43 44 45 46 47 48 49 50
000
ASPQ40 PGUM 022214
RWRPQ
WEATHER ROUNDUP FOR THE MARIANAS AND MICRONESIA
NATIONAL WEATHER SERVICE TIYAN GU
800 AM CHST FRI JUL 03 2015

GUZ001>004-022300-
MARIANA ISLANDS-

CITY           SKY/WX    TMP DP  RH WIND       PRES   REMARKS
GUAM AIRPORT   PTSUNNY   82  79  89 N13       29.70S FOG     HX  93
ANDERSEN AFB   CLOUDY    81  75  83 NE18G24   29.70R
ROTA AIRPORT   NOT AVBL
TINIAN AP      NOT AVBL
SAIPAN AP      PTSUNNY   84  77  79 NE22G31   29.70R HX  94

$$

PMZ161-022300-
REPUBLIC OF PALAU-

CITY           SKY/WX    TMP DP  RH WIND       PRES   REMARKS
KOROR AP       NOT AVBL
KOROR WSO      PTSUNNY   82  73  74 SW13      29.85R

$$

PMZ171>174-022300-
FEDERATED STATES OF MICRONESIA-

CITY           SKY/WX    TMP DP  RH WIND       PRES   REMARKS
YAP AIRPORT    LGT RAIN  79  75  89 W14G28    29.79
CHUUK AP       CLOUDY    82  77  83 SW14      29.67R HX  91
POHNPEI AP     LGT RAIN  77  75  94 NE12      29.76R
POHNPEI WSO    CLOUDY    79  77  94 S7        29.80R
KOSRAE AP      CLOUDY    82  77  83 N9        29.78  HX  91

$$

PMZ181-022300-
REPUBLIC OF THE MARSHALL ISLANDS-

CITY           SKY/WX    TMP DP  RH WIND       PRES   REMARKS
KWAJALEIN AP   MOSUNNY   84  73  70 NW10      29.80R HX  91
MAJURO AP      NOT AVBL
MAJURO WSO     LGT RAIN  79  77  94 W23G29    29.71

$$



USA.gov is the U.S. government's official web portal to all federal, state and local government web resources and services.